,,,PA_Meas_PMT16A,,PR_Meas_QMR101_102,,RH_Meas_QMH101,,SR_Meas_QMS101,,TA_Meas_QMH101,,GenWind,,GenWind,
date,time,status,PA,status,PR,status,RH,status,SR,status,TA,status,DirAvg,status,SpdAvg,
2012-11-06, 00:00:05,VALID,1009.48,VALID,0,VALID,104,VALID,0,VALID,23.655,VALID,14,VALID,0,
2012-11-06, 00:01:05,VALID,1009.45,VALID,0,VALID,104,VALID,0,VALID,23.655,VALID,14,VALID,0,
2012-11-06, 00:02:05,VALID,1009.46,VALID,0,VALID,104,VALID,0,VALID,23.6338,VALID,14,VALID,0,
2012-11-06, 00:03:05,VALID,1009.45,VALID,0,VALID,104,VALID,0,VALID,23.6161,VALID,14,VALID,0,
2012-11-06, 00:04:05,VALID,1009.44,VALID,0,VALID,104,VALID,0,VALID,23.6161,VALID,14,VALID,0,
2012-11-06, 00:05:05,VALID,1009.47,VALID,0,VALID,104,VALID,0,VALID,23.6356,VALID,14,VALID,0,
2012-11-06, 00:06:05,VALID,1009.44,VALID,0,VALID,104,VALID,0,VALID,23.6143,VALID,14,VALID,0,
2012-11-06, 00:07:05,VALID,1009.43,VALID,0,VALID,104,VALID,0,VALID,23.6161,VALID,14,VALID,0,
2012-11-06, 00:08:05,VALID,1009.4,VALID,0,VALID,104,VALID,0,VALID,23.6356,VALID,14,VALID,0,
2012-11-06, 00:09:05,VALID,1009.43,VALID,0,VALID,104,VALID,0,VALID,23.6143,VALID,14,VALID,0,
2012-11-06, 00:10:05,VALID,1009.4,VALID,0,VALID,104,VALID,0,VALID,23.6356,VALID,14,VALID,0,
2012-11-06, 00:11:05,VALID,1009.4,VALID,0,VALID,104,VALID,0,VALID,23.6161,VALID,14,VALID,0,
2012-11-06, 00:12:05,VALID,1009.4,VALID,0,VALID,104,VALID,0,VALID,23.6356,VALID,14,VALID,0,
2012-11-06, 00:13:05,VALID,1009.4,VALID,0,VALID,104,VALID,0,VALID,23.6161,VALID,14,VALID,0,
2012-11-06, 00:14:05,VALID,1009.43,VALID,0,VALID,104,VALID,0,VALID,23.6161,VALID,14,VALID,0,
2012-11-06, 00:15:05,VALID,1009.39,VALID,0,VALID,104,VALID,0,VALID,23.6356,VALID,14,VALID,0,
2012-11-06, 00:16:05,VALID,1009.39,VALID,0,VALID,104,VALID,0,VALID,23.6356,VALID,14,VALID,0,
2012-11-06, 00:17:05,VALID,1009.36,VALID,0,VALID,104,VALID,0,VALID,23.6161,VALID,14,VALID,0,
2012-11-06, 00:18:05,VALID,1009.4,VALID,0,VALID,104,VALID,0,VALID,23.6356,VALID,14,VALID,0,
2012-11-06, 00:19:05,VALID,1009.41,VALID,0,VALID,104,VALID,0,VALID,23.6161,VALID,14,VALID,0,
2012-11-06, 00:20:05,VALID,1009.38,VALID,0,VALID,104,VALID,0,VALID,23.6161,VALID,14,VALID,0,
2012-11-06, 00:21:05,VALID,1009.4,VALID,0,VALID,104,VALID,0,VALID,23.6161,VALID,14,VALID,0,
2012-11-06, 00:22:05,VALID,1009.41,VALID,0,VALID,104,VALID,0,VALID,23.6161,VALID,14,VALID,0,
2012-11-06, 00:23:05,VALID,1009.37,VALID,0,VALID,104,VALID,0,VALID,23.6356,VALID,14,VALID,0.0230469,
2012-11-06, 00:24:05,VALID,1009.36,VALID,0,VALID,104,VALID,0,VALID,23.655,VALID,14,VALID,0.376953,
2012-11-06, 00:25:05,VALID,1009.39,VALID,0,VALID,104,VALID,0,VALID,23.6745,VALID,14,VALID,0.408203,
2012-11-06, 00:26:05,VALID,1009.38,VALID,0,VALID,104,VALID,0,VALID,23.6745,VALID,14,VALID,0.582422,
2012-11-06, 00:27:05,VALID,1009.36,VALID,0,VALID,104,VALID,0,VALID,23.6532,VALID,14,VALID,0.302344,
2012-11-06, 00:28:05,VALID,1009.35,VALID,0,VALID,104,VALID,0,VALID,23.6532,VALID,30,VALID,0.244141,
2012-11-06, 00:29:05,VALID,1009.35,VALID,0,VALID,104,VALID,0,VALID,23.694,VALID,31,VALID,0.0808594,
2012-11-06, 00:30:05,VALID,1009.33,VALID,0,VALID,104,VALID,0,VALID,23.6727,VALID,31,VALID,0.0761719,
2012-11-06, 00:31:05,VALID,1009.28,VALID,0,VALID,104,VALID,0,VALID,23.6745,VALID,30,VALID,0,
2012-11-06, 00:32:05,VALID,1009.28,VALID,0,VALID,104,VALID,0,VALID,23.6727,VALID,31,VALID,0,
2012-11-06, 00:33:05,VALID,1009.23,VALID,0,VALID,104,VALID,0,VALID,23.694,VALID,30,VALID,0,
2012-11-06, 00:34:05,VALID,1009.23,VALID,0,VALID,104,VALID,0,VALID,23.6532,VALID,31,VALID,0,
2012-11-06, 00:35:05,VALID,1009.18,VALID,0,VALID,104,VALID,0,VALID,23.6745,VALID,30,VALID,0,
2012-11-06, 00:36:05,VALID,1009.15,VALID,0,VALID,104,VALID,0,VALID,23.694,VALID,30,VALID,0,
2012-11-06, 00:37:05,VALID,1009.11,VALID,0,VALID,104,VALID,0,VALID,23.6338,VALID,30,VALID,0,
2012-11-06, 00:38:05,VALID,1009.07,VALID,0,VALID,104,VALID,0,VALID,23.6745,VALID,30,VALID,0,
2012-11-06, 00:39:05,VALID,1009.04,VALID,0,VALID,104,VALID,0,VALID,23.6143,VALID,31,VALID,0,
2012-11-06, 00:40:05,VALID,1008.98,VALID,0,VALID,104,VALID,0,VALID,23.655,VALID,30,VALID,0,
2012-11-06, 00:41:05,VALID,1008.97,VALID,0,VALID,104,VALID,0,VALID,23.6338,VALID,30,VALID,0,
2012-11-06, 00:42:05,VALID,1008.96,VALID,0,VALID,104,VALID,0,VALID,23.6338,VALID,30,VALID,0,
2012-11-06, 00:43:05,VALID,1008.92,VALID,0,VALID,104,VALID,0,VALID,23.6161,VALID,30,VALID,0,
2012-11-06, 00:44:05,VALID,1008.93,VALID,0,VALID,104,VALID,0,VALID,23.5771,VALID,30,VALID,0,
2012-11-06, 00:45:05,VALID,1008.92,VALID,0,VALID,104,VALID,0,VALID,23.5771,VALID,31,VALID,0,
2012-11-06, 00:46:05,VALID,1008.91,VALID,0,VALID,104,VALID,0,VALID,23.5381,VALID,31,VALID,0,
2012-11-06, 00:47:05,VALID,1008.89,VALID,0,VALID,104,VALID,0,VALID,23.5169,VALID,31,VALID,0.355469,
2012-11-06, 00:48:04,VALID,1008.88,VALID,0,VALID,104,VALID,0,VALID,23.5186,VALID,30,VALID,0.224219,
2012-11-06, 00:49:04,VALID,1008.85,VALID,0,VALID,104,VALID,0,VALID,23.5381,VALID,31,VALID,0,
2012-11-06, 00:50:04,VALID,1008.84,VALID,0,VALID,104,VALID,0,VALID,23.4992,VALID,31,VALID,0.198047,
2012-11-06, 00:51:04,VALID,1008.84,VALID,0,VALID,104,VALID,0,VALID,23.4779,VALID,30,VALID,0.0742188,
2012-11-06, 00:52:04,VALID,1008.8,VALID,0,VALID,104,VALID,0,VALID,23.4779,VALID,30,VALID,0,
2012-11-06, 00:53:04,VALID,1008.8,VALID,0,VALID,104,VALID,0,VALID,23.4992,VALID,30,VALID,0,
2012-11-06, 00:54:04,VALID,1008.78,VALID,0,VALID,104,VALID,0,VALID,23.4992,VALID,31,VALID,0,
2012-11-06, 00:55:04,VALID,1008.79,VALID,0,VALID,104,VALID,0,VALID,23.5204,VALID,30,VALID,0,
2012-11-06, 00:56:04,VALID,1008.79,VALID,0,VALID,104,VALID,0,VALID,23.4992,VALID,30,VALID,0,
2012-11-06, 00:57:04,VALID,1008.8,VALID,0,VALID,104,VALID,0,VALID,23.4992,VALID,30,VALID,0,
2012-11-06, 00:58:04,VALID,1008.8,VALID,0,VALID,104,VALID,0,VALID,23.4992,VALID,31,VALID,0,
2012-11-06, 00:59:04,VALID,1008.78,VALID,0,VALID,104,VALID,0,VALID,23.5381,VALID,32,VALID,0,
2012-11-06, 01:00:04,VALID,1008.8,VALID,0,VALID,104,VALID,0,VALID,23.5186,VALID,31,VALID,0,
2012-11-06, 01:01:04,VALID,1008.8,VALID,0,VALID,104,VALID,0,VALID,23.5381,VALID,31,VALID,0,
2012-11-06, 01:02:04,VALID,1008.79,VALID,0,VALID,104,VALID,0,VALID,23.5399,VALID,30,VALID,0,
2012-11-06, 01:03:04,VALID,1008.78,VALID,0,VALID,104,VALID,0,VALID,23.5576,VALID,31,VALID,0,
2012-11-06, 01:04:04,VALID,1008.79,VALID,0,VALID,104,VALID,0,VALID,23.5789,VALID,30,VALID,0,
2012-11-06, 01:05:04,VALID,1008.8,VALID,0,VALID,104,VALID,0,VALID,23.5771,VALID,30,VALID,0,
2012-11-06, 01:06:04,VALID,1008.78,VALID,0,VALID,104,VALID,0,VALID,23.5771,VALID,31,VALID,0,
2012-11-06, 01:07:04,VALID,1008.79,VALID,0,VALID,104,VALID,0,VALID,23.5966,VALID,30,VALID,0,
2012-11-06, 01:08:04,VALID,1008.79,VALID,0,VALID,104,VALID,0,VALID,23.5966,VALID,30,VALID,0.340234,
2012-11-06, 01:09:04,VALID,1008.81,VALID,0,VALID,104,VALID,0,VALID,23.6161,VALID,30,VALID,0.316406,
2012-11-06, 01:10:04,VALID,1008.8,VALID,0,VALID,104,VALID,0,VALID,23.5966,VALID,148,VALID,0.713281,
2012-11-06, 01:11:04,VALID,1008.78,VALID,0,VALID,104,VALID,0,VALID,23.5966,VALID,154,VALID,0.785547,
2012-11-06, 01:12:04,VALID,1008.8,VALID,0,VALID,104,VALID,0,VALID,23.5558,VALID,154,VALID,0.695313,
2012-11-06, 01:13:04,VALID,1008.8,VALID,0,VALID,104,VALID,0,VALID,23.5771,VALID,154,VALID,0.392188,
2012-11-06, 01:14:04,VALID,1008.8,VALID,0,VALID,104,VALID,0,VALID,23.5771,VALID,154,VALID,0.550781,
2012-11-06, 01:15:04,VALID,1008.8,VALID,0,VALID,104,VALID,0,VALID,23.5771,VALID,154,VALID,0.546094,
2012-11-06, 01:16:04,VALID,1008.79,VALID,0,VALID,104,VALID,0,VALID,23.5771,VALID,159,VALID,0.803516,
2012-11-06, 01:17:04,VALID,1008.79,VALID,0,VALID,104,VALID,0,VALID,23.5771,VALID,160,VALID,0.346484,
2012-11-06, 01:18:04,VALID,1008.77,VALID,0,VALID,104,VALID,0,VALID,23.5771,VALID,160,VALID,0.517969,
2012-11-06, 01:19:04,VALID,1008.78,VALID,0,VALID,104,VALID,0,VALID,23.5576,VALID,160,VALID,0.718359,
2012-11-06, 01:20:04,VALID,1008.76,VALID,0,VALID,104,VALID,0,VALID,23.5771,VALID,159,VALID,0.526172,
2012-11-06, 01:21:04,VALID,1008.76,VALID,0,VALID,104,VALID,0,VALID,23.5771,VALID,156,VALID,0.186328,
2012-11-06, 01:22:04,VALID,1008.79,VALID,0,VALID,104,VALID,0,VALID,23.5966,VALID,156,VALID,0.267969,
2012-11-06, 01:23:04,VALID,1008.76,VALID,0,VALID,104,VALID,0,VALID,23.5966,VALID,156,VALID,0.369141,
2012-11-06, 01:24:04,VALID,1008.77,VALID,0,VALID,104,VALID,0,VALID,23.6161,VALID,156,VALID,0.573828,
2012-11-06, 01:25:04,VALID,1008.74,VALID,0,VALID,104,VALID,0,VALID,23.6161,VALID,156,VALID,0.411719,
2012-11-06, 01:26:04,VALID,1008.73,VALID,0,VALID,104,VALID,0,VALID,23.6161,VALID,134,VALID,0.46875,
2012-11-06, 01:27:04,VALID,1008.74,VALID,0,VALID,104,VALID,0,VALID,23.5771,VALID,133,VALID,0.333984,
2012-11-06, 01:28:04,VALID,1008.71,VALID,0,VALID,104,VALID,0,VALID,23.6373,VALID,134,VALID,0.442187,
2012-11-06, 01:29:04,VALID,1008.72,VALID,0,VALID,104,VALID,0,VALID,23.5966,VALID,134,VALID,0.514453,
2012-11-06, 01:30:04,VALID,1008.71,VALID,0,VALID,104,VALID,0,VALID,23.5771,VALID,134,VALID,0.552344,
2012-11-06, 01:31:04,VALID,1008.71,VALID,0,VALID,104,VALID,0,VALID,23.5771,VALID,133,VALID,0.452344,
2012-11-06, 01:32:04,VALID,1008.71,VALID,0,VALID,104,VALID,0,VALID,23.5966,VALID,117,VALID,0.481641,
2012-11-06, 01:33:04,VALID,1008.67,VALID,0,VALID,104,VALID,0,VALID,23.5558,VALID,103,VALID,0.527344,
2012-11-06, 01:34:04,VALID,1008.68,VALID,0,VALID,104,VALID,0,VALID,23.5771,VALID,102,VALID,0.153125,
2012-11-06, 01:35:04,VALID,1008.69,VALID,0,VALID,104,VALID,0,VALID,23.5771,VALID,103,VALID,0.339063,
2012-11-06, 01:36:04,VALID,1008.69,VALID,0,VALID,104,VALID,0,VALID,23.5576,VALID,103,VALID,0.0710938,
2012-11-06, 01:37:04,VALID,1008.68,VALID,0,VALID,104,VALID,0,VALID,23.5771,VALID,101,VALID,0.551953,
2012-11-06, 01:38:04,VALID,1008.69,VALID,0,VALID,104,VALID,0,VALID,23.5771,VALID,101,VALID,0.126563,
2012-11-06, 01:39:04,VALID,1008.68,VALID,0,VALID,104,VALID,0,VALID,23.5558,VALID,101,VALID,0.248047,
2012-11-06, 01:40:04,VALID,1008.67,VALID,0,VALID,104,VALID,0,VALID,23.5576,VALID,95,VALID,0.523047,
2012-11-06, 01:41:04,VALID,1008.7,VALID,0,VALID,104,VALID,0,VALID,23.5771,VALID,90,VALID,0.371484,
2012-11-06, 01:42:04,VALID,1008.7,VALID,0,VALID,104,VALID,0,VALID,23.5576,VALID,90,VALID,0.509766,
2012-11-06, 01:43:04,VALID,1008.7,VALID,0,VALID,104,VALID,0,VALID,23.5576,VALID,89,VALID,0.433594,
2012-11-06, 01:44:04,VALID,1008.7,VALID,0,VALID,104,VALID,0,VALID,23.5576,VALID,85,VALID,0.588672,
2012-11-06, 01:45:04,VALID,1008.68,VALID,0,VALID,104,VALID,0,VALID,23.5771,VALID,84,VALID,0.311328,
2012-11-06, 01:46:04,VALID,1008.72,VALID,0,VALID,104,VALID,0,VALID,23.5169,VALID,85,VALID,0.382422,
2012-11-06, 01:47:04,VALID,1008.7,VALID,0,VALID,104,VALID,0,VALID,23.5363,VALID,85,VALID,0.453516,
2012-11-06, 01:48:04,VALID,1008.73,VALID,0,VALID,104,VALID,0,VALID,23.5363,VALID,85,VALID,0.692578,
2012-11-06, 01:49:04,VALID,1008.73,VALID,0,VALID,104,VALID,0,VALID,23.5363,VALID,85,VALID,0.636328,
2012-11-06, 01:50:04,VALID,1008.72,VALID,0,VALID,104,VALID,0,VALID,23.5363,VALID,83,VALID,0.703906,
2012-11-06, 01:51:04,VALID,1008.73,VALID,0,VALID,104,VALID,0,VALID,23.5186,VALID,83,VALID,0.597656,
2012-11-06, 01:52:04,VALID,1008.71,VALID,0,VALID,104,VALID,0,VALID,23.5169,VALID,83,VALID,0.232812,
2012-11-06, 01:53:04,VALID,1008.71,VALID,0,VALID,104,VALID,0,VALID,23.4779,VALID,71,VALID,0.59375,
2012-11-06, 01:54:04,VALID,1008.73,VALID,0,VALID,104,VALID,0,VALID,23.4779,VALID,71,VALID,0.370703,
2012-11-06, 01:55:04,VALID,1008.74,VALID,0,VALID,104,VALID,0,VALID,23.4779,VALID,71,VALID,0.458594,
2012-11-06, 01:56:04,VALID,1008.74,VALID,0,VALID,104,VALID,0,VALID,23.4992,VALID,71,VALID,0.237109,
2012-11-06, 01:57:04,VALID,1008.73,VALID,0,VALID,104,VALID,0,VALID,23.4584,VALID,70,VALID,0.426562,
2012-11-06, 01:58:04,VALID,1008.75,VALID,0,VALID,104,VALID,0,VALID,23.4584,VALID,70,VALID,0.208984,
2012-11-06, 01:59:04,VALID,1008.74,VALID,0,VALID,104,VALID,0,VALID,23.4584,VALID,65,VALID,0.315234,
2012-11-06, 02:00:04,VALID,1008.75,VALID,0,VALID,104,VALID,0,VALID,23.4602,VALID,65,VALID,0,
2012-11-06, 02:01:04,VALID,1008.75,VALID,0,VALID,104,VALID,0,VALID,23.4407,VALID,65,VALID,0.0183594,
2012-11-06, 02:02:04,VALID,1008.73,VALID,0,VALID,104,VALID,0,VALID,23.4407,VALID,65,VALID,0.180469,
2012-11-06, 02:03:04,VALID,1008.72,VALID,0,VALID,104,VALID,0,VALID,23.4389,VALID,65,VALID,0.442578,
2012-11-06, 02:04:04,VALID,1008.71,VALID,0,VALID,104,VALID,0,VALID,23.4602,VALID,76,VALID,0.846484,
2012-11-06, 02:05:04,VALID,1008.69,VALID,0,VALID,104,VALID,0,VALID,23.4407,VALID,77,VALID,0.753906,
2012-11-06, 02:06:04,VALID,1008.69,VALID,0,VALID,104,VALID,0,VALID,23.4584,VALID,74,VALID,0.537891,
2012-11-06, 02:07:04,VALID,1008.68,VALID,0,VALID,104,VALID,0,VALID,23.4389,VALID,70,VALID,0.799219,
2012-11-06, 02:08:04,VALID,1008.66,VALID,0,VALID,104,VALID,0,VALID,23.4407,VALID,71,VALID,0.486719,
2012-11-06, 02:09:04,VALID,1008.65,VALID,0,VALID,104,VALID,0,VALID,23.4407,VALID,71,VALID,0.610937,
2012-11-06, 02:10:04,VALID,1008.66,VALID,0,VALID,104,VALID,0,VALID,23.4407,VALID,71,VALID,0.410937,
2012-11-06, 02:11:04,VALID,1008.64,VALID,0,VALID,104,VALID,0,VALID,23.4389,VALID,71,VALID,0.269141,
2012-11-06, 02:12:04,VALID,1008.65,VALID,0,VALID,104,VALID,0,VALID,23.4389,VALID,82,VALID,0.903125,
2012-11-06, 02:13:04,VALID,1008.61,VALID,0,VALID,104,VALID,0,VALID,23.4797,VALID,78,VALID,0.617578,
2012-11-06, 02:14:04,VALID,1008.62,VALID,0,VALID,104,VALID,0,VALID,23.4389,VALID,78,VALID,0.419141,
2012-11-06, 02:15:04,VALID,1008.62,VALID,0,VALID,104,VALID,0,VALID,23.4584,VALID,63,VALID,0.884766,
2012-11-06, 02:16:04,VALID,1008.62,VALID,0,VALID,104,VALID,0,VALID,23.4389,VALID,59,VALID,1.05742,
2012-11-06, 02:17:04,VALID,1008.62,VALID,0,VALID,104,VALID,0,VALID,23.4389,VALID,68,VALID,0.642187,
2012-11-06, 02:18:04,VALID,1008.62,VALID,0,VALID,104,VALID,0,VALID,23.4407,VALID,77,VALID,0.771484,
2012-11-06, 02:19:04,VALID,1008.6,VALID,0,VALID,104,VALID,0,VALID,23.4194,VALID,72,VALID,0.283594,
2012-11-06, 02:20:04,VALID,1008.61,VALID,0,VALID,104,VALID,0,VALID,23.4797,VALID,70,VALID,0.59375,
2012-11-06, 02:21:04,VALID,1008.62,VALID,0,VALID,104,VALID,0,VALID,23.4797,VALID,61,VALID,0.483594,
2012-11-06, 02:22:04,VALID,1008.64,VALID,0,VALID,104,VALID,0,VALID,23.4584,VALID,69,VALID,0.621094,
2012-11-06, 02:23:04,VALID,1008.66,VALID,0,VALID,104,VALID,0,VALID,23.4602,VALID,70,VALID,0.575,
2012-11-06, 02:24:04,VALID,1008.7,VALID,0,VALID,104,VALID,0,VALID,23.4194,VALID,85,VALID,0.640625,
2012-11-06, 02:25:04,VALID,1008.72,VALID,0,VALID,104,VALID,0,VALID,23.4602,VALID,85,VALID,0.217187,
2012-11-06, 02:26:04,VALID,1008.71,VALID,0,VALID,104,VALID,0,VALID,23.4602,VALID,85,VALID,0.00195313,
2012-11-06, 02:27:04,VALID,1008.72,VALID,0,VALID,104,VALID,0,VALID,23.4389,VALID,85,VALID,0.00195313,
2012-11-06, 02:28:04,VALID,1008.74,VALID,0,VALID,104,VALID,0,VALID,23.4602,VALID,85,VALID,0.382422,
2012-11-06, 02:29:04,VALID,1008.75,VALID,0,VALID,104,VALID,0,VALID,23.4584,VALID,126,VALID,0.678906,
2012-11-06, 02:30:04,VALID,1008.76,VALID,0,VALID,104,VALID,0,VALID,23.4992,VALID,116,VALID,0.615625,
2012-11-06, 02:31:04,VALID,1008.78,VALID,0,VALID,104,VALID,0,VALID,23.4797,VALID,116,VALID,0.206641,
2012-11-06, 02:32:04,VALID,1008.76,VALID,0,VALID,104,VALID,0,VALID,23.4779,VALID,116,VALID,0.514844,
2012-11-06, 02:33:04,VALID,1008.77,VALID,0,VALID,104,VALID,0,VALID,23.4584,VALID,115,VALID,0.381641,
2012-11-06, 02:34:04,VALID,1008.77,VALID,0,VALID,104,VALID,0,VALID,23.4602,VALID,114,VALID,0.258203,
2012-11-06, 02:35:04,VALID,1008.75,VALID,0,VALID,104,VALID,0,VALID,23.4779,VALID,113,VALID,0.133984,
2012-11-06, 02:36:04,VALID,1008.77,VALID,0,VALID,104,VALID,0,VALID,23.5186,VALID,111,VALID,0.588672,
2012-11-06, 02:37:04,VALID,1008.74,VALID,0,VALID,104,VALID,0,VALID,23.5186,VALID,101,VALID,0.446094,
2012-11-06, 02:38:04,VALID,1008.74,VALID,0,VALID,104,VALID,0,VALID,23.4779,VALID,101,VALID,0.4375,
2012-11-06, 02:39:04,VALID,1008.72,VALID,0,VALID,104,VALID,0,VALID,23.4992,VALID,100,VALID,0.169141,
2012-11-06, 02:40:04,VALID,1008.71,VALID,0,VALID,104,VALID,0,VALID,23.4974,VALID,100,VALID,0,
2012-11-06, 02:41:04,VALID,1008.71,VALID,0,VALID,104,VALID,0,VALID,23.4797,VALID,100,VALID,0.325,
2012-11-06, 02:42:04,VALID,1008.72,VALID,0,VALID,104,VALID,0,VALID,23.4779,VALID,100,VALID,0.199609,
2012-11-06, 02:43:04,VALID,1008.7,VALID,0,VALID,104,VALID,0,VALID,23.4779,VALID,100,VALID,0.377734,
2012-11-06, 02:44:04,VALID,1008.73,VALID,0,VALID,104,VALID,0,VALID,23.4779,VALID,101,VALID,0.556641,
2012-11-06, 02:45:04,VALID,1008.74,VALID,0,VALID,104,VALID,0,VALID,23.4584,VALID,68,VALID,0.498047,
2012-11-06, 02:46:04,VALID,1008.73,VALID,0,VALID,104,VALID,0,VALID,23.4779,VALID,68,VALID,0.347266,
2012-11-06, 02:47:04,VALID,1008.72,VALID,0,VALID,104,VALID,0,VALID,23.4584,VALID,68,VALID,0.547656,
2012-11-06, 02:48:04,VALID,1008.72,VALID,0,VALID,104,VALID,0,VALID,23.4992,VALID,68,VALID,0.747266,
2012-11-06, 02:49:04,VALID,1008.73,VALID,0,VALID,104,VALID,0,VALID,23.4974,VALID,68,VALID,0.351172,
2012-11-06, 02:50:04,VALID,1008.73,VALID,0,VALID,104,VALID,0,VALID,23.5186,VALID,68,VALID,0.505859,
2012-11-06, 02:51:04,VALID,1008.75,VALID,0,VALID,104,VALID,0,VALID,23.4779,VALID,68,VALID,0.5875,
2012-11-06, 02:52:04,VALID,1008.76,VALID,0,VALID,104,VALID,0,VALID,23.4992,VALID,68,VALID,0.611328,
2012-11-06, 02:53:04,VALID,1008.74,VALID,0,VALID,104,VALID,0,VALID,23.4584,VALID,56,VALID,0.417969,
2012-11-06, 02:54:04,VALID,1008.73,VALID,0,VALID,104,VALID,0,VALID,23.4992,VALID,56,VALID,0.279687,
2012-11-06, 02:55:04,VALID,1008.7,VALID,0,VALID,104,VALID,0,VALID,23.4779,VALID,56,VALID,0.199609,
2012-11-06, 02:56:04,VALID,1008.71,VALID,0,VALID,104,VALID,0,VALID,23.4584,VALID,56,VALID,0.514063,
2012-11-06, 02:57:04,VALID,1008.71,VALID,0,VALID,104,VALID,0,VALID,23.4779,VALID,56,VALID,0.287891,
2012-11-06, 02:58:04,VALID,1008.68,VALID,0,VALID,104,VALID,0,VALID,23.4389,VALID,56,VALID,0.320703,
2012-11-06, 02:59:04,VALID,1008.71,VALID,0,VALID,104,VALID,0,VALID,23.4194,VALID,56,VALID,0,
2012-11-06, 03:00:04,VALID,1008.69,VALID,0,VALID,104,VALID,0,VALID,23.4389,VALID,56,VALID,0.280469,
2012-11-06, 03:01:04,VALID,1008.69,VALID,0,VALID,104,VALID,0,VALID,23.4194,VALID,56,VALID,0.287109,
2012-11-06, 03:02:04,VALID,1008.67,VALID,0,VALID,104,VALID,0,VALID,23.4212,VALID,56,VALID,0,
2012-11-06, 03:03:04,VALID,1008.65,VALID,0,VALID,104,VALID,0,VALID,23.4194,VALID,56,VALID,0.501562,
2012-11-06, 03:04:04,VALID,1008.68,VALID,0,VALID,104,VALID,0,VALID,23.4,VALID,54,VALID,0.494922,
2012-11-06, 03:05:04,VALID,1008.66,VALID,0,VALID,104,VALID,0,VALID,23.4212,VALID,68,VALID,0.524219,
2012-11-06, 03:06:04,VALID,1008.66,VALID,0,VALID,104,VALID,0,VALID,23.4407,VALID,67,VALID,0.310156,
2012-11-06, 03:07:04,VALID,1008.62,VALID,0,VALID,104,VALID,0,VALID,23.4407,VALID,68,VALID,0.253125,
2012-11-06, 03:08:04,VALID,1008.64,VALID,0,VALID,104,VALID,0,VALID,23.4389,VALID,67,VALID,0.464844,
2012-11-06, 03:09:04,VALID,1008.62,VALID,0,VALID,104,VALID,0,VALID,23.4,VALID,67,VALID,0.265234,
2012-11-06, 03:10:04,VALID,1008.6,VALID,0,VALID,104,VALID,0,VALID,23.4,VALID,67,VALID,0.206641,
2012-11-06, 03:11:04,VALID,1008.58,VALID,0,VALID,104,VALID,0,VALID,23.4,VALID,67,VALID,0.00585938,
2012-11-06, 03:12:04,VALID,1008.58,VALID,0,VALID,104,VALID,0,VALID,23.3805,VALID,67,VALID,0.218359,
2012-11-06, 03:13:04,VALID,1008.59,VALID,0,VALID,104,VALID,0,VALID,23.3823,VALID,67,VALID,0.0871094,
2012-11-06, 03:14:04,VALID,1008.58,VALID,0,VALID,104,VALID,0,VALID,23.361,VALID,67,VALID,0.00742187,
2012-11-06, 03:15:04,VALID,1008.57,VALID,0,VALID,104,VALID,0,VALID,23.3823,VALID,67,VALID,0,
2012-11-06, 03:16:04,VALID,1008.58,VALID,0,VALID,104,VALID,0,VALID,23.3823,VALID,67,VALID,0,
2012-11-06, 03:17:04,VALID,1008.56,VALID,0,VALID,104,VALID,0,VALID,23.361,VALID,67,VALID,0,
2012-11-06, 03:18:04,VALID,1008.56,VALID,0,VALID,104,VALID,0,VALID,23.3823,VALID,67,VALID,0,
2012-11-06, 03:19:04,VALID,1008.57,VALID,0,VALID,104,VALID,0,VALID,23.4017,VALID,67,VALID,0.287891,
2012-11-06, 03:20:04,VALID,1008.58,VALID,0,VALID,104,VALID,0,VALID,23.3805,VALID,64,VALID,0.312109,
2012-11-06, 03:21:04,VALID,1008.58,VALID,0,VALID,104,VALID,0,VALID,23.3805,VALID,63,VALID,0,
2012-11-06, 03:22:04,VALID,1008.56,VALID,0,VALID,104,VALID,0,VALID,23.361,VALID,63,VALID,0.205469,
2012-11-06, 03:23:04,VALID,1008.58,VALID,0,VALID,104,VALID,0,VALID,23.3415,VALID,63,VALID,0.0425781,
2012-11-06, 03:24:04,VALID,1008.6,VALID,0,VALID,104,VALID,0,VALID,23.3628,VALID,63,VALID,0,
2012-11-06, 03:25:04,VALID,1008.63,VALID,0,VALID,104,VALID,0,VALID,23.3415,VALID,63,VALID,0,
2012-11-06, 03:26:04,VALID,1008.63,VALID,0,VALID,104,VALID,0,VALID,23.3415,VALID,63,VALID,0,
2012-11-06, 03:27:04,VALID,1008.64,VALID,0,VALID,104,VALID,0,VALID,23.3628,VALID,63,VALID,0,
2012-11-06, 03:28:04,VALID,1008.68,VALID,0,VALID,104,VALID,0,VALID,23.3628,VALID,63,VALID,0,
2012-11-06, 03:29:04,VALID,1008.65,VALID,0,VALID,104,VALID,0,VALID,23.3415,VALID,63,VALID,0,
2012-11-06, 03:30:04,VALID,1008.69,VALID,0,VALID,104,VALID,0,VALID,23.3805,VALID,63,VALID,0.00273437,
2012-11-06, 03:31:04,VALID,1008.72,VALID,0,VALID,104,VALID,0,VALID,23.361,VALID,63,VALID,0.046875,
2012-11-06, 03:32:04,VALID,1008.7,VALID,0,VALID,104,VALID,0,VALID,23.361,VALID,63,VALID,0,
2012-11-06, 03:33:04,VALID,1008.74,VALID,0,VALID,104,VALID,0,VALID,23.3805,VALID,63,VALID,0,
2012-11-06, 03:34:04,VALID,1008.75,VALID,0,VALID,104,VALID,0,VALID,23.361,VALID,63,VALID,0,
2012-11-06, 03:35:04,VALID,1008.76,VALID,0,VALID,104,VALID,0,VALID,23.4,VALID,63,VALID,0,
2012-11-06, 03:36:04,VALID,1008.77,VALID,0,VALID,104,VALID,0,VALID,23.4212,VALID,63,VALID,0,
2012-11-06, 03:37:04,VALID,1008.83,VALID,0,VALID,104,VALID,0,VALID,23.4,VALID,63,VALID,0,
2012-11-06, 03:38:04,VALID,1008.85,VALID,0,VALID,104,VALID,0,VALID,23.4,VALID,63,VALID,0,
2012-11-06, 03:39:04,VALID,1008.87,VALID,0,VALID,104,VALID,0,VALID,23.4,VALID,63,VALID,0.154297,
2012-11-06, 03:40:04,VALID,1008.87,VALID,0,VALID,104,VALID,0,VALID,23.4017,VALID,63,VALID,0.0890625,
2012-11-06, 03:41:04,VALID,1008.9,VALID,0,VALID,104,VALID,0,VALID,23.361,VALID,63,VALID,0,
2012-11-06, 03:42:04,VALID,1008.94,VALID,0,VALID,104,VALID,0,VALID,23.4,VALID,63,VALID,0,
2012-11-06, 03:43:04,VALID,1008.96,VALID,0,VALID,104,VALID,0,VALID,23.361,VALID,63,VALID,0,
2012-11-06, 03:44:04,VALID,1009.01,VALID,0,VALID,104,VALID,0,VALID,23.361,VALID,63,VALID,0,
2012-11-06, 03:45:04,VALID,1009.03,VALID,0,VALID,104,VALID,0,VALID,23.3805,VALID,63,VALID,0,
2012-11-06, 03:46:04,VALID,1009.05,VALID,0,VALID,104,VALID,0,VALID,23.4407,VALID,63,VALID,0,
2012-11-06, 03:47:04,VALID,1009.07,VALID,0,VALID,104,VALID,0,VALID,23.4212,VALID,63,VALID,0,
2012-11-06, 03:48:04,VALID,1009.07,VALID,0,VALID,104,VALID,0,VALID,23.4017,VALID,63,VALID,0.136719,
2012-11-06, 03:49:04,VALID,1009.08,VALID,0,VALID,104,VALID,0,VALID,23.4194,VALID,63,VALID,0.378125,
2012-11-06, 03:50:04,VALID,1009.09,VALID,0,VALID,104,VALID,0,VALID,23.4194,VALID,63,VALID,0.317578,
2012-11-06, 03:51:04,VALID,1009.09,VALID,0,VALID,104,VALID,0,VALID,23.4194,VALID,63,VALID,0.166406,
2012-11-06, 03:52:04,VALID,1009.09,VALID,0,VALID,104,VALID,0,VALID,23.4194,VALID,63,VALID,0.283984,
2012-11-06, 03:53:04,VALID,1009.09,VALID,0,VALID,104,VALID,0,VALID,23.4,VALID,63,VALID,0.000390625,
2012-11-06, 03:54:04,VALID,1009.1,VALID,0,VALID,104,VALID,0,VALID,23.4,VALID,63,VALID,0.0257812,
2012-11-06, 03:55:04,VALID,1009.08,VALID,0,VALID,104,VALID,0,VALID,23.4407,VALID,63,VALID,0.179297,
2012-11-06, 03:56:04,VALID,1009.12,VALID,0,VALID,104,VALID,0,VALID,23.4194,VALID,63,VALID,0.289453,
2012-11-06, 03:57:04,VALID,1009.11,VALID,0,VALID,104,VALID,0,VALID,23.4407,VALID,63,VALID,0,
2012-11-06, 03:58:04,VALID,1009.15,VALID,0,VALID,104,VALID,0,VALID,23.4407,VALID,63,VALID,0,
2012-11-06, 03:59:04,VALID,1009.15,VALID,0,VALID,104,VALID,0,VALID,23.4194,VALID,63,VALID,0.228125,
2012-11-06, 04:00:04,VALID,1009.18,VALID,0,VALID,104,VALID,0,VALID,23.4407,VALID,63,VALID,0.201172,